This demonstration page uses our WeatherBlox Daily Observations layout. Learn more.

Left ArrowRight Arrow

Hourly Observations for March 15, 2022

Temp ( °F °C ) Dew Point ( °F °C ) Humidity (%) Winds ( mph kmh ) Pressure ( in mb ) Visibility ( mi km ) Precip ( " mm )
12:53 am 00:53 Clear 45 7.2 17 -8.3 33 33 NE 5 7 30.21 1023 10 16 0.00 0.00
1:53 am 01:53 Clear 42 5.6 15 -9.4 33 33 NE 7 11 30.22 1024 10 16 0.00 0.00
2:53 am 02:53 Clear 37 2.8 14 -10 39 39 N 9 15 30.23 1024 10 16 0.00 0.00
3:53 am 03:53 Clear 38 3.3 13 -10.6 36 36 N 7 11 30.23 1024 10 16 0.00 0.00
4:53 am 04:53 Clear 35 1.7 11 -11.7 37 37 N 8 13 30.23 1024 10 16 0.00 0.00
5:53 am 05:53 Clear 33 0.6 10 -12.2 38 38 N 7 11 30.24 1024 10 16 0.00 0.00
6:53 am 06:53 Clear 32 0 10 -12.2 40 40 N 8 13 30.27 1025 10 16 0.00 0.00
7:53 am 07:53 Clear 31 -0.6 10 -12.2 42 42 NNW 7 11 30.29 1026 10 16 0.00 0.00
8:53 am 08:53 Sunny 37 2.8 12 -11.1 36 36 N 9 15 30.31 1027 10 16 0.00 0.00
9:53 am 09:53 Sunny 47 8.3 18 -7.8 31 31 NNE 7 11 30.32 1027 10 16 0.00 0.00
10:53 am 10:53 Sunny 56 13.3 22 -5.6 27 27 E 5 7 30.31 1027 10 16 0.00 0.00
11:53 am 11:53 Sunny 61 16.1 25 -3.9 25 25 S 6 9 30.30 1026 10 16 0.00 0.00
12:53 pm 12:53 Sunny 63 17.2 22 -5.6 21 21 WSW 6 9 30.27 1025 10 16 0.00 0.00
1:53 pm 13:53 Sunny 67 19.4 21 -6.1 17 17 SW 6 9 30.22 1023 10 16 0.00 0.00
2:53 pm 14:53 Sunny 70 21.1 18 -7.8 14 14 W 7 11 30.18 1022 10 16 0.00 0.00
3:53 pm 15:53 Sunny 72 22.2 16 -8.9 12 12 VRB 5 7 30.13 1020 10 16 0.00 0.00
4:53 pm 16:53 Sunny 73 22.8 11 -11.7 9 9 SW 5 7 30.10 1019 10 16 0.00 0.00
5:53 pm 17:53 Sunny 72 22.2 12 -11.1 10 10 Calm 30.08 1019 10 16 0.00 0.00
6:53 pm 18:53 Sunny 72 22.2 8 -13.3 8 8 SSW 7 11 30.06 1018 10 16 0.00 0.00
7:53 pm 19:53 Sunny 68 20 7 -13.9 9 9 SSE 6 9 30.07 1018 10 16 0.00 0.00
8:53 pm 20:53 Clear 60 15.6 6 -14.4 11 11 SE 8 13 30.06 1018 10 16 0.00 0.00
9:53 pm 21:53 Clear 57 13.9 7 -13.9 13 13 SE 9 15 30.05 1018 10 16 0.00 0.00
10:53 pm 22:53 Clear 56 13.3 8 -13.3 14 14 SE 10 17 30.04 1017 10 16 0.00 0.00
11:53 pm 23:53 Clear 52 11.1 8 -13.3 17 17 SE 10 17 30.03 1017 10 16 0.00 0.00

Powered by AerisWeather